Regional Weather Roundup
Issued by NWS Sioux Falls, SD

Home | Current Version | Previous Version | Text Only | Print | Product List | Glossary On
Versions: 1 2 3 4 5 6 7 8 9 10 11 12 13 14 15 16 17 18 19 20 21 22 23 24 25 26 27 28 29 30 31 32 33 34 35 36 37 38 39 40 41 42 43 44 45 46 47 48 49 50
000
ASUS43 KFSD 211810
RWRFSD

WEATHER ROUNDUP FOR SE SOUTH DAKOTA/SW MINNESOTA/NW IOWA
NATIONAL WEATHER SERVICE SIOUX FALLS SD
1200 PM CST TUE FEB 21 2017

NOTE: "FAIR" INDICATES FEW OR NO CLOUDS BELOW 12,000 FEET WITH NO
SIGNIFICANT WEATHER AND OR OBSTRUCTIONS TO VISIBILITY.


SDZ038>040-050-052>070-211900-
SOUTHEAST SOUTH DAKOTA

CITY           SKY/WX    TMP DP  RH WIND       PRES   REMARKS
BROOKINGS      PTSUNNY   53  36  52 SW13      29.75F
CHAMBERLAIN    SUNNY     65  36  34 W5        29.76S
6HR MIN TEMP:  40; 6HR MAX TEMP:  65;

HURON          SUNNY     59  38  45 S5        29.74F
6HR MIN TEMP:  36; 6HR MAX TEMP:  59;

MADISON        FAIR      54  37  54 SW14      29.77F
MITCHELL       SUNNY     62  34  35 W12       29.77F
6HR MIN TEMP:  39; 6HR MAX TEMP:  63;

SIOUX FALLS    MOSUNNY   57  38  48 SW10      29.79F
6HR MIN TEMP:  38; 6HR MAX TEMP:  57;

WINNER         FAIR      71  33  24 W20       29.76F
YANKTON        SUNNY     64  30  27 SW17G24   29.79F
$$

MNZ071-072-080-081-089-090-097-098-211900-
SOUTHWEST MINNESOTA

CITY           SKY/WX    TMP DP  RH WIND       PRES   REMARKS
FAIRMONT       SUNNY     57  46  66 S18G25    29.84F
JACKSON        SUNNY     54  41  62 S21G29    29.83F
LUVERNE        MOSUNNY   57  39  51 SW15      29.81F
MARSHALL       MOSUNNY   55  40  56 SW15G25   29.74F
6HR MIN TEMP:  36; 6HR MAX TEMP:  57;

MONTEVIDEO     MOSUNNY   55  48  76 W10       29.75S
PIPESTONE      MOSUNNY   54  37  54 SW12      29.78F
REDWOOD FALLS  MOSUNNY   58  40  51 SW22G32   29.75F
TRACY          MOSUNNY   55  42  62 SW21G31   29.77F
WINDOM         MOSUNNY   57  43  58 SW18G26   29.80F
WORTHINGTON    SUNNY     55  42  61 SW21G31   29.81F
$$

IAZ001>003-012>014-020>022-031-032-NEZ013-014-SDZ071-211900-
NORTHWEST IOWA

CITY           SKY/WX    TMP DP  RH WIND       PRES   REMARKS
CHEROKEE       SUNNY     60  42  50 SW14G24   29.88F
DENISON        SUNNY     59  43  55 SW16G22   29.91F
ESTHERVILLE    SUNNY     57  44  62 SW22G36   29.84F
LE MARS        SUNNY     61  45  55 S21G31    29.85F
SHELDON        SUNNY     57  48  72 S23G35    29.81F
SIOUX CITY     SUNNY     64  42  44 SW24G35   29.88F
6HR MIN TEMP:  31; 6HR MAX TEMP:  64;

SPENCER        SUNNY     58  43  57 SW26G32   29.85F
6HR MIN TEMP:  32; 6HR MAX TEMP:  58;

STORM LAKE     SUNNY     57  45  62 SW15G23   29.90F
$$

ABBREVIATIONS USED IN REMARKS
   TC - TEMPERATURE IN CELSIUS
  WCI - WIND CHILL INDEX
   HX - HEAT INDEX
  VSB - VISIBILITY





USA.gov is the U.S. government's official web portal to all federal, state and local government web resources and services.